Location: Joplin
(37.0842°N, 94.5131°W)
Time: 21:41:35
(UTC-05:00)

Envisat - Pass Details

Date: 01 October 2021
Orbit: 764 x 766 km, 98.2° (Epoch: 23 October)

Event Time Altitude Azimuth Distance (km) Brightness Sun altitude
Rises 05:17:34 0° 31° (NNE) 3,235 6.9 -23.8°
Reaches altitude 10° 05:20:37 10° 50° (NE) 2,303 6.3 -23.2°
Maximum altitude 05:24:02 18° 93° (E) 1,803 5.8 -22.5°
Drops below altitude 10° 05:27:27 10° 136° (SE) 2,292 5.8 -21.9°
Sets 05:30:27 0° 155° (SSE) 3,213 6.4 -21.3°
